Temperature
20 21 21 22 22 21 21 20 20 21 20 21 21 20 21 22 22 22 23 23 22 23 23 22 22 22 22 21 21 21 20 20 20 19 19 19 19 19 18 18 18 18 18 18
20 21 21 22 22 22 22 21 21 21 21 21 21 21 21 22 22 22 23 23 23 23 23 23 23 22 22 21 21 21 20 20 20 19 19 19 19 19 18 18 18 18 18 18
19 20 21 21 21 21 22 21 21 21 21 20 19 20 21 22 22 22 23 23 24 23 23 23 23 22 22 22 21 21 20 20 20 19 19 19 19 18 18 18 18 18 18 18
16 20 21 20 21 21 21 20 20 20 20 19 20 21 22 22 22 23 23 23 24 24 23 23 23 22 22 21 21 20 20 20 20 19 19 19 19 18 18 18 18 17 17 17
15 18 19 20 20 20 21 20 20 20 19 20 20 21 21 22 23 23 24 24 24 23 23 23 22 22 21 21 20 20 20 20 20 19 19 19 19 19 18 18 18 17 17 17
15 18 19 20 21 21 21 20 20 19 19 19 19 19 20 22 23 23 23 23 23 23 23 22 22 21 21 21 20 20 20 20 20 19 19 19 19 18 18 18 17 17 17 17
15 17 17 18 19 20 20 20 20 20 20 19 19 20 22 22 22 23 23 23 23 23 22 22 22 21 21 20 20 20 20 19 19 19 19 18 18 18 18 17 17 17 17 17
14 16 17 18 19 19 18 19 20 20 20 20 21 21 22 22 22 22 22 22 22 22 22 22 21 21 21 20 20 20 19 19 19 19 18 18 18 18 17 17 17 17 17 16
15 16 17 17 18 19 19 19 20 20 21 21 21 21 21 21 21 21 21 21 21 21 21 21 21 21 21 20 20 19 19 19 19 18 18 18 18 17 17 17 17 16 16 16
14 15 16 17 18 19 19 19 20 20 21 21 21 21 21 21 21 20 20 21 20 20 20 20 20 20 20 20 20 19 19 19 18 18 18 18 17 17 17 17 16 16 16 16
14 14 16 18 18 19 19 19 20 20 21 21 21 21 20 20 20 20 20 20 20 20 20 20 20 20 19 19 19 19 19 18 18 18 17 17 17 17 16 16 16 16 16 15
14 15 15 17 18 18 19 19 19 19 20 20 20 20 20 20 20 20 19 19 19 19 19 19 19 19 19 18 18 18 18 18 18 17 17 17 16 16 16 16 15 15 15 15
16 17 17 17 17 18 18 18 18 19 19 19 19 19 19 19 19 19 19 19 19 19 19 18 18 18 18 18 18 18 18 17 17 17 17 16 16 16 15 15 15 15 15 15
16 16 16 17 17 17 18 18 18 18 18 18 18 19 18 18 18 19 19 18 18 18 18 18 18 18 17 17 17 17 17 17 17 16 16 16 16 15 15 15 15 15 14 14
16 16 17 17 17 17 17 17 17 17 18 18 18 18 18 18 18 18 18 18 18 18 17 17 17 17 17 17 17 17 16 16 16 16 16 15 15 15 15 14 14 14 14 14
16 16 16 16 16 16 16 17 17 17 17 17 17 17 17 17 17 17 17 17 17 17 17 17 17 17 17 16 16 16 16 16 16 15 15 15 15 14 14 14 14 14 14 14
15 15 15 15 16 16 16 16 16 16 16 16 16 16 16 16 16 16 16 16 16 16 16 16 16 16 16 16 16 15 15 15 15 15 15 14 14 14 14 14 14 13 13 13
16 16 16 16 16 15 15 15 15 15 15 15 15 15 15 16 16 16 16 16 16 16 16 16 16 16 16 16 15 15 15 15 15 15 14 14 14 14 13 13 13 13 13 13
16 16 16 16 16 15 15 15 15 15 15 15 15 15 15 15 15 15 15 15 15 15 15 15 15 15 15 15 15 14 14 14 14 14 14 14 13 13 13 13 13 12 12 12
15 15 15 15 15 15 15 15 15 15 15 15 15 14 14 14 15 15 15 15 15 14 15 15 14 14 14 14 14 14 14 13 13 13 13 13 13 13 12 12 12 12 12 12
15 15 15 15 15 15 15 14 14 14 14 14 14 14 14 14 14 14 14 14 14 14 14 14 14 14 14 13 13 13 13 13 12 12 12 13 12 12 12 12 12 12 11 11
14 14 14 14 14 14 14 14 14 14 14 14 14 14 14 14 14 14 14 14 13 13 13 13 13 13 13 13 13 13 13 12 12 12 12 12 12 12 12 12 11 11 11 11
14 14 14 14 14 14 14 14 14 14 14 14 13 13 13 13 13 13 13 13 13 13 13 13 13 13 13 13 12 12 12 12 12 12 12 12 12 11 11 11 11 10 10 10
14 13 13 13 13 13 14 13 13 13 13 13 13 13 13 13 13 13 13 13 13 12 12 13 12 12 12 12 12 12 12 12 12 11 11 11 11 11 11 11 10 10 10 9
13 13 13 13 13 13 13 13 13 13 13 13 13 12 12 12 12 12 12 12 12 12 12 12 12 12 12 12 12 12 11 11 11 11 11 11 10 10 10 10 10 9 9 9
13 13 13 13 13 13 13 13 12 12 12 12 12 12 12 12 12 12 12 12 12 12 12 11 11 11 11 11 11 11 11 11 11 11 10 10 10 10 10 9 9 9 9 9
12 12 12 12 12 12 12 12 12 12 12 12 12 12 12 12 11 11 11 11 11 11 11 11 11 11 11 11 11 11 10 10 10 10 10 10 10 10 9 9 9 9 8 8
Wind_Speed
4 4 3 4 5 6 6 8 8 8 8 10 8 7 6 5 4 5 5 6 7 8 7 7 7 7 7 7 7 7 7 7 7 6 6 5 5 5 4 4 5 4 4 3
1 1 3 3 5 7 6 5 6 5 8 7 4 3 4 5 6 7 8 8 8 8 8 8 9 8 7 7 7 7 8 8 6 6 5 5 5 5 4 4 4 4 4 4
3 2 1 4 6 7 5 4 6 7 8 3 2 5 7 7 8 9 9 8 8 8 9 9 8 8 8 7 7 7 7 6 6 6 6 6 5 5 5 4 4 4 4 4
3 2 6 8 3 4 5 4 5 5 5 5 6 6 4 4 6 6 6 6 6 6 6 6 6 7 7 6 7 7 6 6 6 6 6 5 5 5 5 4 3 4 4 4
4 4 6 7 2 4 4 4 4 5 5 3 1 2 2 2 4 6 5 5 5 6 6 6 6 7 7 7 6 6 6 6 6 6 6 6 6 6 5 4 4 4 3 4
5 5 7 7 4 2 3 4 5 4 4 2 4 1 5 3 2 3 2 3 3 4 5 6 5 7 7 7 6 6 6 6 5 6 6 6 6 5 4 4 4 4 3 4
5 5 7 6 5 2 5 7 4 3 4 5 5 6 4 2 3 3 3 4 4 4 5 6 6 8 7 6 6 6 4 4 4 5 6 6 5 5 4 4 3 3 4 4
5 4 7 4 1 4 6 3 2 3 3 4 4 2 2 3 4 4 4 4 4 5 4 4 6 8 7 6 6 4 4 4 4 5 5 5 5 5 4 4 4 4 4 4
7 7 5 3 3 3 3 2 3 3 3 3 2 2 2 3 3 4 4 3 3 4 4 3 5 8 8 6 5 5 5 4 4 4 4 4 5 5 4 4 4 4 4 4
2 5 4 4 3 3 2 3 5 4 3 3 3 4 3 3 3 3 3 3 3 4 4 3 4 6 6 5 6 6 5 5 4 4 4 3 3 4 4 4 5 4 5 5
3 4 4 4 3 3 3 3 3 2 2 3 4 3 3 3 3 2 2 2 3 4 4 4 4 5 4 5 6 6 5 4 4 4 4 3 3 3 5 5 6 6 5 5
6 6 4 5 4 3 2 2 2 1 1 1 2 3 3 3 2 3 2 2 2 2 2 2 3 4 4 5 6 6 5 4 4 3 3 3 3 2 3 4 5 7 7 6
6 4 4 4 4 2 2 1 1 2 1 0 1 2 3 2 2 3 3 3 3 3 3 2 2 3 3 4 5 6 6 5 4 4 4 3 3 3 3 3 4 6 7 7
5 2 3 4 4 3 1 1 2 2 2 1 1 2 2 2 2 3 3 3 3 3 3 3 2 3 3 3 4 5 5 5 4 4 4 4 4 3 3 4 4 4 4 6
4 4 5 3 2 2 1 1 3 2 2 3 2 2 2 3 3 3 3 3 3 2 2 2 3 3 3 4 4 4 4 3 3 3 3 3 3 3 4 4 4 4 3 4
4 2 2 2 2 2 1 1 1 1 0 0 1 0 1 1 1 1 1 3 4 4 3 3 3 4 3 4 4 3 3 3 3 2 2 2 3 3 3 3 3 4 4 4
3 3 3 3 4 3 3 3 3 2 1 1 2 2 1 2 1 0 1 1 2 2 2 2 3 2 2 3 3 3 2 2 3 2 2 3 3 3 3 3 3 4 4 4
7 7 6 5 4 4 3 2 1 1 2 2 2 2 2 2 2 1 1 1 2 2 2 1 1 2 2 3 3 2 2 2 2 2 2 2 3 3 3 4 4 5 4 3
5 5 4 4 4 3 2 1 1 1 1 2 2 3 3 2 2 1 1 2 1 1 3 1 1 1 1 2 3 2 2 2 2 2 2 3 3 3 3 4 4 4 4 3
3 3 3 3 2 2 2 1 1 2 2 2 2 2 1 1 2 2 2 0 2 3 2 1 1 0 1 2 2 2 2 3 3 2 2 2 3 3 3 4 4 4 4 3
2 2 3 3 2 2 2 2 2 2 2 2 3 2 2 1 2 2 2 1 2 2 1 1 1 1 1 1 2 2 2 2 3 3 3 3 3 3 3 3 3 3 3 3
2 3 3 3 2 1 2 2 2 2 2 2 2 2 2 2 1 1 1 2 2 2 1 0 0 0 1 1 1 2 2 2 2 2 2 2 2 3 3 3 3 2 2 2
2 2 2 2 3 2 1 1 2 2 2 2 2 2 2 2 2 2 1 1 1 1 0 0 0 1 1 1 1 1 1 1 1 2 2 2 2 2 2 2 2 2 2 2
1 1 2 2 2 2 1 1 1 1 1 1 1 2 2 2 0 1 1 1 1 0 0 0 1 1 1 1 1 1 1 1 1 1 1 1 1 1 1 1 1 1 1 2
1 1 1 2 2 2 2 1 1 1 1 1 1 1 1 2 2 1 1 1 1 1 1 1 1 1 1 1 1 1 0 0 1 0 1 1 1 1 1 1 1 1 1 1
1 1 1 2 2 2 2 2 1 1 1 1 1 1 1 1 2 1 1 1 1 2 2 1 1 1 1 1 1 1 0 0 0 0 0 0 1 1 1 1 1 1 1 1
1 1 1 1 1 0 1 2 2 1 2 2 1 1 1 1 1 1 1 1 1 1 1 1 1 1 1 1 1 1 1 1 1 1 0 0 1 1 1 0 0 0 1 1
Wind_Direction
209 217 192 206 202 189 188 188 192 229 230 251 242 233 233 220 201 184 187 187 190 192 190 183 179 181 181 182 179 176 174 185 196 196 192 187 188 192 190 193 203 201 203 212
226 239 207 226 227 205 208 197 215 238 255 258 250 214 217 214 198 200 201 199 195 192 187 185 183 183 180 182 180 172 179 192 191 183 183 188 192 191 189 200 205 199 211 219
218 276 93 251 227 204 207 206 186 214 241 258 241 227 220 216 207 207 206 201 195 194 192 190 187 181 182 181 171 173 183 186 183 184 189 196 194 189 198 204 203 209 221 223
143 111 216 242 241 191 191 231 222 234 248 232 231 242 242 215 208 212 202 194 191 187 187 185 178 172 167 160 164 172 179 182 180 181 189 188 184 195 203 199 201 216 228 231
134 179 262 290 257 177 186 248 243 232 250 265 295 34 316 236 205 209 199 188 184 177 170 162 162 159 150 156 164 172 184 190 190 186 186 187 194 202 201 195 204 213 225 229
137 163 221 243 264 247 144 261 266 215 225 211 110 152 260 254 205 185 158 148 147 142 134 144 155 148 149 161 165 181 192 192 185 181 185 193 199 198 195 194 207 212 229 235
162 197 251 262 294 92 162 240 265 217 208 179 188 217 237 200 175 162 143 124 126 129 144 160 154 144 152 162 182 193 185 177 182 189 194 195 192 191 187 190 196 209 229 246
155 183 245 284 101 171 220 262 260 231 213 197 218 241 187 161 152 138 131 127 139 140 149 154 152 152 160 181 191 173 164 171 187 198 199 193 186 192 187 188 201 219 233 250
187 207 241 256 221 243 229 256 264 240 231 194 190 205 171 152 147 142 141 143 149 149 143 157 168 166 173 188 173 164 166 183 195 195 194 191 189 194 195 197 210 228 237 251
228 255 265 278 284 294 262 258 269 245 217 184 189 189 173 155 151 146 140 150 151 145 155 181 186 182 183 171 163 164 178 189 190 187 193 195 196 198 200 208 219 225 234 246
237 269 305 305 295 299 308 313 309 294 218 190 167 180 179 166 162 153 145 154 160 172 185 199 196 193 186 170 162 170 183 186 187 190 193 196 200 211 214 220 218 218 228 231
221 225 206 251 278 298 301 316 313 346 15 30 161 177 167 170 156 151 159 152 161 185 196 214 203 199 195 178 173 174 182 187 187 187 189 194 201 237 248 238 238 232 233 231
233 235 223 253 279 290 281 312 349 19 62 75 48 147 156 160 152 144 149 159 181 193 196 209 205 199 200 186 182 184 188 192 189 189 190 195 205 217 258 286 267 253 249 245
235 228 253 251 256 274 285 349 54 41 28 47 86 111 132 134 143 155 178 189 192 188 189 196 200 213 210 186 179 185 190 192 189 195 197 199 208 220 231 245 266 278 272 261
254 235 227 246 266 285 285 85 73 35 17 20 47 90 128 146 166 191 188 171 164 174 195 195 203 222 207 183 179 184 187 196 199 200 200 199 206 219 233 242 253 272 286 285
270 278 232 223 233 249 227 148 149 250 286 14 65 146 178 160 161 183 193 174 170 188 200 205 222 229 197 184 179 180 189 188 183 192 205 209 216 226 237 242 251 265 272 279
233 239 234 242 247 246 236 223 209 216 209 209 200 191 143 120 114 173 252 229 184 193 211 210 223 208 177 178 180 184 184 186 178 188 213 221 222 228 237 245 253 261 269 272
223 219 208 207 215 230 249 251 231 210 221 220 175 148 154 159 175 210 233 70 61 19 328 275 183 164 177 178 177 179 178 183 190 207 220 226 231 238 243 250 256 264 279 285
218 209 204 201 200 197 203 232 230 193 189 164 158 160 165 169 159 136 86 84 81 303 300 307 159 145 192 189 166 170 172 181 199 219 227 231 241 252 254 258 263 268 271 272
192 185 183 195 195 179 182 197 166 140 146 144 137 127 123 141 133 124 112 154 255 259 273 260 164 193 211 190 165 173 182 199 217 232 235 238 247 256 260 262 266 268 267 265
180 181 178 184 186 182 193 188 161 160 162 138 137 157 181 183 154 140 140 231 289 302 301 192 169 202 219 205 178 179 188 205 222 236 246 250 255 262 268 270 269 271 274 274
173 173 179 180 169 194 214 187 170 166 153 149 160 161 156 150 133 129 174 214 243 257 270 256 274 186 163 158 163 175 188 203 224 249 260 260 257 260 267 270 268 270 272 274
178 178 172 178 182 197 202 185 179 168 173 188 186 180 181 189 179 177 234 259 239 235 181 58 42 97 101 92 131 159 190 216 242 254 261 267 268 265 268 273 275 278 281 285
172 181 181 164 136 135 177 237 194 166 175 203 202 183 170 166 172 241 210 222 233 221 125 94 91 122 102 88 115 139 193 235 260 272 285 294 296 292 284 281 287 292 288 285
166 139 117 121 137 178 208 195 104 109 133 122 82 104 149 155 163 175 144 148 143 113 87 77 81 86 86 94 106 100 31 281 282 284 310 311 306 296 281 273 273 271 269 278
101 138 159 177 189 189 166 140 142 155 139 123 80 71 88 107 119 110 100 103 93 89 88 79 68 80 88 91 95 100 109 322 344 31 21 296 294 294 299 295 287 287 293 302
77 91 90 72 41 128 144 144 153 179 180 171 177 175 140 123 109 97 88 78 79 78 75 70 72 78 85 91 93 80 62 52 52 52 33 345 312 305 312 308 324 344 346 351
Height
1493 1490 1490 1491 1492 1495 1498 1501 1507 1500 1498 1486 1481 1479 1479 1480 1481 1483 1484 1486 1489 1491 1494 1496 1499 1502 1505 1508 1511 1513 1515 1517 1519 1521 1523 1524 1526 1527 1528 1529 1531 1532 1533 1534
1493 1489 1489 1490 1488 1489 1490 1491 1493 1491 1489 1478 1477 1477 1478 1478 1479 1480 1481 1483 1486 1488 1491 1494 1496 1499 1502 1505 1508 1511 1513 1514 1516 1518 1520 1522 1523 1524 1525 1527 1528 1529 1530 1530
1502 1494 1490 1496 1486 1485 1485 1484 1485 1489 1482 1476 1476 1475 1474 1475 1476 1477 1478 1480 1483 1485 1488 1491 1494 1497 1500 1503 1506 1508 1510 1512 1514 1516 1517 1519 1520 1521 1522 1523 1525 1525 1526 1527
1505 1499 1506 1490 1477 1477 1480 1480 1479 1477 1475 1474 1472 1472 1472 1473 1474 1475 1476 1478 1481 1483 1486 1489 1492 1495 1498 1500 1503 1505 1507 1509 1511 1513 1514 1516 1517 1518 1519 1520 1521 1522 1523 1523
1508 1507 1499 1484 1475 1476 1479 1479 1474 1474 1473 1472 1471 1471 1471 1471 1472 1473 1475 1476 1479 1482 1485 1488 1490 1493 1496 1498 1500 1502 1504 1506 1508 1509 1511 1512 1513 1514 1516 1517 1517 1518 1519 1519
1504 1504 1504 1484 1471 1470 1475 1481 1471 1470 1470 1470 1471 1476 1472 1469 1470 1472 1474 1476 1478 1481 1483 1486 1489 1491 1494 1496 1497 1499 1501 1503 1505 1506 1508 1509 1510 1511 1512 1513 1514 1514 1515 1516
1500 1499 1491 1475 1470 1470 1485 1481 1468 1467 1467 1468 1469 1469 1467 1468 1469 1471 1473 1475 1478 1480 1482 1484 1487 1489 1491 1493 1495 1497 1498 1500 1502 1503 1504 1505 1507 1508 1508 1509 1510 1510 1511 1512
1498 1498 1492 1471 1469 1473 1473 1467 1466 1465 1465 1465 1465 1465 1465 1466 1468 1470 1472 1474 1477 1478 1480 1483 1485 1486 1488 1490 1492 1494 1496 1497 1499 1500 1501 1502 1503 1504 1505 1505 1506 1506 1506 1506
1483 1482 1472 1469 1468 1467 1466 1465 1464 1463 1463 1463 1463 1464 1464 1466 1467 1469 1471 1473 1476 1477 1479 1481 1483 1484 1485 1487 1489 1491 1493 1494 1495 1497 1498 1498 1499 1500 1500 1501 1502 1501 1502 1501
1476 1472 1468 1467 1466 1465 1464 1463 1462 1462 1461 1461 1462 1462 1463 1464 1466 1468 1470 1472 1474 1476 1477 1479 1480 1482 1483 1485 1487 1489 1490 1491 1492 1493 1494 1495 1495 1496 1497 1497 1498 1497 1497 1496
1473 1469 1467 1465 1464 1464 1463 1462 1461 1460 1460 1460 1460 1461 1462 1463 1465 1467 1469 1471 1473 1474 1475 1476 1478 1479 1481 1483 1484 1485 1487 1488 1489 1490 1491 1491 1492 1492 1492 1493 1494 1493 1493 1493
1470 1465 1465 1464 1462 1462 1461 1460 1459 1459 1458 1459 1460 1460 1461 1463 1464 1466 1467 1469 1471 1472 1473 1474 1475 1477 1478 1480 1481 1482 1483 1484 1485 1486 1487 1487 1488 1488 1488 1489 1489 1489 1488 1488
1463 1462 1462 1461 1461 1460 1460 1459 1458 1458 1458 1458 1459 1460 1460 1461 1463 1465 1466 1467 1468 1469 1471 1472 1473 1474 1475 1476 1477 1478 1479 1480 1481 1482 1482 1483 1484 1484 1484 1484 1484 1484 1484 1483
1460 1460 1460 1459 1459 1459 1458 1458 1458 1458 1457 1458 1458 1458 1459 1460 1461 1462 1464 1465 1467 1467 1468 1469 1470 1471 1473 1474 1475 1475 1476 1477 1477 1478 1479 1479 1480 1480 1480 1480 1479 1479 1479 1478
1457 1458 1457 1457 1457 1457 1457 1456 1456 1456 1457 1457 1458 1458 1458 1458 1459 1460 1462 1463 1464 1465 1465 1466 1467 1468 1470 1471 1471 1472 1472 1473 1474 1475 1475 1475 1476 1476 1476 1476 1476 1475 1474 1474
1455 1455 1455 1455 1455 1455 1455 1455 1454 1454 1455 1455 1456 1457 1457 1458 1459 1459 1460 1461 1462 1462 1462 1463 1464 1465 1466 1467 1468 1468 1469 1470 1471 1471 1472 1472 1472 1472 1472 1472 1471 1470 1470 1469
1452 1452 1452 1453 1453 1453 1453 1453 1453 1453 1454 1454 1454 1455 1456 1456 1456 1457 1458 1459 1459 1460 1460 1460 1461 1462 1463 1464 1465 1465 1466 1466 1467 1467 1468 1468 1468 1468 1468 1467 1466 1466 1465 1465
1449 1449 1450 1450 1451 1451 1451 1452 1451 1452 1452 1452 1453 1453 1454 1454 1454 1455 1456 1456 1458 1458 1458 1458 1459 1460 1461 1461 1462 1463 1463 1463 1464 1464 1464 1464 1464 1464 1463 1463 1462 1461 1460 1460
1446 1447 1447 1448 1449 1449 1449 1450 1450 1450 1451 1451 1451 1451 1451 1453 1453 1454 1454 1455 1455 1456 1456 1456 1457 1457 1458 1459 1459 1459 1460 1460 1461 1461 1461 1460 1460 1459 1459 1458 1457 1456 1455 1454
1443 1444 1445 1446 1447 1447 1447 1448 1449 1449 1449 1449 1450 1450 1451 1451 1452 1452 1453 1454 1454 1454 1454 1454 1455 1455 1455 1455 1456 1456 1456 1457 1458 1458 1457 1456 1456 1455 1455 1454 1453 1452 1451 1450
1441 1441 1443 1444 1445 1446 1446 1447 1447 1447 1448 1448 1448 1449 1450 1450 1451 1451 1452 1452 1453 1453 1453 1452 1453 1453 1452 1452 1452 1453 1453 1454 1454 1454 1454 1453 1452 1452 1451 1450 1449 1448 1447 1445
1438 1439 1440 1441 1443 1444 1445 1445 1446 1446 1447 1447 1448 1448 1449 1449 1449 1450 1450 1451 1451 1451 1450 1450 1450 1450 1450 1450 1450 1450 1450 1451 1451 1451 1450 1450 1449 1448 1447 1446 1445 1444 1443 1442
1437 1437 1438 1440 1441 1442 1443 1444 1445 1445 1446 1446 1447 1447 1447 1447 1448 1448 1449 1449 1449 1449 1448 1448 1448 1449 1449 1449 1448 1448 1448 1448 1448 1448 1447 1447 1446 1445 1444 1443 1441 1440 1439 1438
1435 1436 1437 1438 1439 1440 1441 1442 1443 1444 1444 1445 1445 1445 1446 1446 1446 1447 1447 1447 1447 1447 1447 1447 1447 1447 1446 1446 1446 1446 1445 1445 1445 1445 1444 1443 1443 1442 1441 1440 1438 1438 1437 1435
1433 1434 1435 1436 1437 1439 1440 1441 1442 1442 1443 1443 1444 1444 1445 1445 1445 1446 1446 1446 1446 1446 1446 1445 1445 1445 1445 1444 1444 1444 1444 1443 1443 1442 1442 1441 1440 1439 1438 1437 1436 1435 1434 1433
1433 1434 1435 1436 1437 1438 1439 1440 1440 1441 1442 1442 1443 1443 1444 1444 1444 1445 1445 1445 1444 1445 1444 1444 1444 1444 1444 1443 1442 1442 1442 1442 1441 1440 1440 1439 1438 1437 1436 1435 1434 1433 1432 1431
1434 1434 1435 1435 1437 1437 1438 1439 1440 1440 1441 1442 1442 1443 1443 1443 1444 1444 1444 1444 1444 1444 1444 1444 1443 1443 1442 1442 1441 1441 1441 1440 1439 1438 1438 1437 1436 1435 1434 1433 1432 1431 1430 1429